Location: Three Oaks Observatory
(31.1535°N, 83.5955°W)
Time: 01:29:30
(UTC-05:00)

ISS - Visible Passes

Search period start: 19 February 2019 00:00
Search period end: 01 March 2019 00:00
Orbit: 403 x 411 km, 51.6° (Epoch: 19 February)

Date Brightness Start Highest point End Pass type
(mag) Time Alt. Az. Time Alt. Az. Time Alt. Az.
20 Feb -0.6 06:04:07 10° SSE 06:05:33 12° SE 06:07:01 10° E visible
21 Feb -3.8 06:47:02 10° SW 06:50:18 88° NW 06:53:33 10° NE visible
22 Feb -2.4 05:55:50 10° SSW 05:58:53 38° SE 06:01:56 10° ENE visible
23 Feb -1.2 05:07:30 17° SE 05:07:30 17° SE 05:09:46 10° E visible
23 Feb -2.8 06:40:58 10° WSW 06:43:51 28° NW 06:46:44 10° NNE visible
24 Feb -3.8 05:51:41 48° W 05:52:17 60° NW 05:55:31 10° NE visible
25 Feb -1.2 05:02:51 20° ENE 05:02:51 20° ENE 05:03:59 10° NE visible
25 Feb -1.6 06:36:03 10° WNW 06:37:34 12° NNW 06:39:03 10° N visible
26 Feb -2.0 05:46:33 20° NNW 05:46:33 20° NNW 05:48:26 10° NNE visible
